Location: Casone le Fosse
(44.6547°N, 12.1103°E)
Time: 11:58:26
(UTC+00:00)

CSL-04 Rocket - Pass Details

Date: 29 October 2020
Orbit: 805 x 861 km, 98.9° (Epoch: 28 November)

Event Time Altitude Azimuth Distance (km) Brightness Sun altitude
Exits shadow 18:34:11 - 179° (S) 2,724 6.3 -27.2°
Reaches altitude 10° 18:34:48 10° 180° (S) 2,488 6.1 -27.3°
Maximum altitude 18:40:14 57° 259° (W) 1,006 4.3 -28.2°
Drops below altitude 10° 18:45:40 10° 338° (NNW) 2,484 6.5 -29.2°
Sets 18:48:05 0° 342° (NNW) 3,416 7.2 -29.6°
